[[{"header":{"parameterUnit":"m.s-1","parameterCategory":1,"la1":30.2991,"la2":30.254,"lo1":-89.0895,"lo2":-89.0444,"dy":0.0017,"dx":0.0017,"nx":28,"ny":28,"refTime":"2024-05-10T03:00:00:Z","depth":0,"parameterNumber":2,"parameterNumberName":"U-component_of_WINDS"},"data":[0,0,0,0,0,0,0,0,0,0,0,0,0,0,0,0,0,0,0,0,0,0,0,0,0,0,0,0,0,0,0,0,0,0,0,0,0,0,0,0,0,0,0,0,0,0,0,0,0,0,0,0,0,0,0,0,0,0,0.344,0.344,0,0.3437,0.3437,0.3437,0.3397,0.3396,0.3395,0.3394,0.3393,0.3394,0.3395,0,0,0,0,0,0,0,0,0,0,0,0,0,0.3413,0.3414,0.344,0.344,0.344,0.3437,0.3437,0.3437,0.3397,0.3396,0.3394,0.3393,0.3393,0.3394,0.3395,0,0,0,0,0,0,0,0,0,0,0,0,0,0.3419,0.3414,0.344,0.342,0.3418,0.3437,0.3437,0.3437,0.3397,0.3396,0.3394,0.3393,0.3392,0.3394,0.3395,0.3434,0,0,0.3399,0.34,0,0,0,0,0,0,0,0,0.3419,0.342,0.3423,0.3421,0.3419,0.3415,0.3427,0.3436,0.3398,0.3405,0.3394,0.3392,0.3402,0.3402,0.3405,0.3434,0.3434,0.3399,0.34,0.3401,0.3401,0,0,0,0,0,0,0,0.3418,0.342,0.3439,0.3423,0.342,0.3411,0.341,0.3428,0.3412,0.3404,0.3401,0.3401,0.34,0.3404,0.3405,0.3434,0.3399,0.34,0.3401,0.3402,0.3494,0.3496,0,0,0,0,0,0,0.342,0.342,0.3439,0.3438,0.3415,0.3413,0.3412,0.3418,0.3412,0.3409,0.3403,0.34,0.3402,0.3403,0.3405,0.3449,0.3401,0.3402,0.3403,0.3492,0.3494,0.3496,0,0,0,0,0,0,0.342,0.3423,0.3439,0.3428,0.343,0.3415,0.3422,0.3419,0.3422,0.341,0.3408,0.3409,0.3401,0.3403,0.3427,0.3449,0.3403,0.3404,0.3491,0.3493,0.3495,0.354,0,0,0,0,0,0,0.3419,0.3423,0.3437,0.3429,0.343,0.346,0.3424,0.342,0.3424,0.342,0.3416,0.3413,0.34,0.3425,0.3428,0.345,0.3405,0.3488,0.3492,0.3495,0.3536,0.3543,0.355,0,0,0,0,0,0.3419,0.345,0.3438,0.344,0.3448,0.3462,0.3463,0.3446,0.3426,0.3441,0.3433,0.3414,0.3446,0.3428,0.3431,0.3454,0.3487,0.3491,0.3494,0.3533,0.3542,0.3549,0,0,0,0,0,0,0.3462,0.3449,0.3435,0.3464,0.3464,0.3455,0.3473,0.3456,0.3462,0.3458,0.3437,0.3437,0.3464,0.3461,0.3441,0.3491,0.3463,0.3468,0.3492,0.35,0.3506,0.3507,0.3406,0,0,0,0,0,0.3474,0.3486,0.3475,0.3502,0.3502,0.3488,0.3493,0.348,0.348,0.348,0.3474,0.3475,0.3485,0.3492,0.3501,0.3536,0.3534,0.3553,0.356,0.3565,0.3569,0.3588,0.3596,0.3508,0.3508,0.3508,0,0,0.3501,0.3495,0.3504,0.351,0.3509,0.3522,0.3488,0.3503,0.3513,0.3482,0.3504,0.35,0.35,0.3529,0.3542,0.3528,0.3593,0.357,0.3574,0.3576,0.3592,0.3601,0.3608,0.3511,0.351,0.351,0,0,0.3556,0.3554,0.3576,0.3575,0.3573,0.3563,0.3568,0.3561,0.3557,0.3578,0.3555,0.3567,0.3585,0.3586,0.3589,0.3644,0.3627,0.3648,0.3683,0.3701,0.3708,0.3714,0.3734,0.3741,0.3652,0.3652,0.3652,0,0.359,0.3609,0.359,0.3606,0.361,0.3582,0.3604,0.3604,0.3606,0.3609,0.3593,0.3615,0.3613,0.3642,0.3655,0.3659,0.3664,0.3648,0.3708,0.3714,0.3719,0.3738,0.3746,0.3655,0.3655,0.3654,0.3654,0,0.365,0.3663,0.3682,0.3683,0.3688,0.3708,0.3692,0.37,0.3687,0.3679,0.3701,0.3698,0.3705,0.3711,0.3699,0.3739,0.373,0.3712,0.3683,0.3731,0.3748,0.3755,0.3659,0.3658,0.3657,0.3656,0,0,0.3732,0.3722,0.3729,0.3729,0.3725,0.3735,0.3754,0.3761,0.3768,0.377,0.3785,0.3801,0.3784,0.3787,0.3774,0.379,0.3835,0.3769,0.3769,0.3782,0.3879,0.3893,0.3901,0.3823,0.3824,0.3825,0.3879,0,0.3785,0.3816,0.3799,0.3833,0.3845,0.3818,0.3835,0.3834,0.3827,0.3837,0.3829,0.3841,0.3817,0.3819,0.3833,0.3826,0.3854,0.3822,0.3838,0.3838,0.3838,0.391,0.3925,0.3976,0.3885,0.3887,0.3887,0,0.3851,0.3855,0.389,0.3883,0.3887,0.3902,0.3907,0.3917,0.3916,0.3909,0.3913,0.3897,0.3915,0.3887,0.3913,0.3891,0.3897,0.3894,0.3896,0.3897,0.3866,0.3913,0.3992,0.4,0.3898,0.3897,0.3896,0,0.3908,0.3922,0.3944,0.3945,0.3938,0.3949,0.3947,0.3944,0.3949,0.3954,0.3957,0.3964,0.3968,0.3974,0.396,0.3941,0.3988,0.3958,0.3984,0.3984,0.3995,0.3994,0.4075,0.3998,0.3998,0.3998,0.3998,0,0.3969,0.3991,0.3969,0.3983,0.4007,0.3988,0.4012,0.4007,0.4005,0.4018,0.3996,0.4008,0.3989,0.4,0.399,0.4013,0.4015,0.4011,0.4008,0.4013,0.4013,0.4016,0.4012,0.4,0.4,0.3999,0.3999,0,0.4035,0.4022,0.4044,0.4036,0.4034,0.4052,0.4045,0.4057,0.4049,0.4065,0.4068,0.4055,0.4067,0.4054,0.4065,0.4057,0.4088,0.408,0.4089,0.4086,0.4112,0.411,0.4198,0.4208,0.4125,0.4126,0.4126,0,0.4075,0.4091,0.4084,0.4091,0.409,0.4101,0.4105,0.4088,0.4094,0.4094,0.4107,0.4117,0.4123,0.4143,0.4135,0.4144,0.4136,0.4166,0.4137,0.4141,0.4136,0.4135,0.4137,0.4172,0.4173,0.4174,0.4174,0,0.4147,0.4139,0.4147,0.4153,0.4159,0.4163,0.4165,0.4171,0.4153,0.4161,0.4172,0.4178,0.4188,0.4199,0.4205,0.4203,0.4186,0.4184,0.419,0.4195,0.4199,0.4197,0.4105,0.4182,0.4181,0.418,0.418,0.418,0.4201,0.4214,0.4211,0.4221,0.422,0.4223,0.4234,0.4227,0.4236,0.4243,0.4232,0.4246,0.4245,0.4252,0.4252,0.4263,0.4251,0.426,0.4262,0.4264,0.4268,0.4197,0.4265,0.4264,0.4264,0.4264,0.4264,0,0.4271,0.4268,0.4277,0.428,0.4288,0.4271,0.4272,0.428,0.4292,0.4293,0.43,0.4313,0.4323,0.4315,0.4324,0.4335,0.4327,0.4337,0.4336,0.4336,0.4279,0.4273,0.4343,0.4343,0.4343,0.4343,0.4343,0.4343,0.4309,0.433,0.4323,0.4344,0.4341,0.4354,0.4356,0.4359,0.4359,0.4374,0.4382,0.4377,0.4375,0.4383,0.4391,0.4389,0.4393,0.4406,0.4401,0.4348,0.434,0.4333,0.4327,0.4407,0.4407,0.4457,0.4458,0.4458]},{"header":{"parameterUnit":"m.s-1","parameterCategory":1,"la1":30.2991,"la2":30.254,"lo1":-89.0895,"lo2":-89.0444,"dy":0.0017,"dx":0.0017,"nx":28,"ny":28,"refTime":"2024-05-10T03:00:00:Z","depth":0,"parameterNumber":3,"parameterNumberName":"V-component_of_WINDS"},"data":[0,0,0,0,0,0,0,0,0,0,0,0,0,0,0,0,0,0,0,0,0,0,0,0,0,0,0,0,0,0,0,0,0,0,0,0,0,0,0,0,0,0,0,0,0,0,0,0,0,0,0,0,0,0,0,0,0,0,5.4347,5.4347,0,5.431,5.4309,5.4309,5.4242,5.424,5.4239,5.4238,5.4198,5.4198,5.4199,0,0,0,0,0,0,0,0,0,0,0,0,0,5.436,5.436,5.4347,5.4347,5.4346,5.431,5.4309,5.4309,5.4242,5.424,5.4239,5.4237,5.4198,5.4198,5.4199,0,0,0,0,0,0,0,0,0,0,0,0,0,5.4342,5.436,5.4347,5.4308,5.4305,5.431,5.4309,5.4309,5.4242,5.424,5.4238,5.4237,5.4198,5.4198,5.4199,5.4238,0,0,5.4199,5.4199,0,0,0,0,0,0,0,0,5.4343,5.4342,5.4315,5.4311,5.4307,5.4278,5.4299,5.4285,5.4243,5.4266,5.4238,5.4236,5.4226,5.4224,5.4221,5.4236,5.4235,5.4199,5.4199,5.4199,5.4199,0,0,0,0,0,0,0,5.4344,5.4343,5.4332,5.4314,5.4309,5.4293,5.4288,5.4296,5.4257,5.4264,5.4259,5.4255,5.4224,5.4221,5.422,5.4234,5.4199,5.4199,5.42,5.42,5.4281,5.4283,0,0,0,0,0,0,5.4351,5.4344,5.4333,5.4331,5.4321,5.4294,5.4289,5.4289,5.4257,5.425,5.4257,5.4252,5.4222,5.422,5.4218,5.4263,5.4199,5.42,5.42,5.4279,5.4282,5.4284,0,0,0,0,0,0,5.4352,5.4351,5.4335,5.4336,5.4333,5.4296,5.4297,5.429,5.4287,5.4252,5.4245,5.4262,5.422,5.4218,5.4234,5.4261,5.42,5.42,5.4277,5.428,5.4283,5.4353,0,0,0,0,0,0,5.4353,5.4352,5.4366,5.4337,5.4333,5.4352,5.4299,5.429,5.4288,5.4281,5.4254,5.4248,5.4219,5.4234,5.4234,5.426,5.42,5.4274,5.4278,5.4282,5.4348,5.4358,5.4366,0,0,0,0,0,5.4353,5.4387,5.4367,5.4366,5.4351,5.4353,5.4351,5.4317,5.429,5.4304,5.4282,5.4249,5.4258,5.4237,5.4236,5.4262,5.4272,5.4277,5.4282,5.4344,5.4356,5.4366,0,0,0,0,0,0,5.4419,5.4382,5.436,5.4385,5.4373,5.4342,5.4359,5.4331,5.4325,5.4319,5.4277,5.4272,5.4294,5.4279,5.4256,5.43,5.426,5.4265,5.4308,5.4319,5.4328,5.433,5.42,0,0,0,0,0,5.4436,5.4442,5.4409,5.4434,5.443,5.4396,5.4395,5.4371,5.4356,5.435,5.4329,5.4316,5.4316,5.4317,5.4315,5.4346,5.434,5.4364,5.4373,5.4381,5.4385,5.4402,5.4412,5.4299,5.4299,5.4299,0,0,5.4472,5.4453,5.4458,5.4447,5.4435,5.4441,5.4391,5.44,5.4405,5.4351,5.4365,5.435,5.4333,5.4357,5.4367,5.4346,5.4416,5.4387,5.4393,5.4393,5.4408,5.4418,5.4428,5.4302,5.4302,5.4301,0,0,5.454,5.4526,5.4546,5.4535,5.4518,5.4495,5.45,5.4474,5.4462,5.4476,5.4437,5.4442,5.4442,5.4432,5.4427,5.4495,5.4464,5.4495,5.4543,5.456,5.4568,5.4576,5.46,5.461,5.45,5.45,5.45,0,5.4586,5.4595,5.456,5.4571,5.4568,5.4522,5.4542,5.4533,5.4516,5.4514,5.4492,5.4493,5.4478,5.45,5.4517,5.4514,5.4519,5.4497,5.457,5.4577,5.4584,5.4607,5.4616,5.4504,5.4503,5.4503,5.4503,0,5.4653,5.466,5.4678,5.4663,5.4662,5.4678,5.4646,5.4649,5.4625,5.4605,5.4621,5.4602,5.4596,5.4599,5.4576,5.4618,5.4606,5.4578,5.4537,5.4599,5.462,5.4628,5.451,5.4508,5.4507,5.4506,0,0,5.4759,5.4727,5.4734,5.4727,5.4706,5.471,5.4725,5.472,5.4724,5.4714,5.4725,5.4728,5.4703,5.4697,5.4672,5.4687,5.4742,5.4656,5.4655,5.4673,5.4789,5.481,5.4821,5.4723,5.4724,5.4725,5.479,0,5.4822,5.4845,5.4815,5.4844,5.485,5.4808,5.4821,5.4809,5.4792,5.4795,5.4775,5.4778,5.4744,5.474,5.4753,5.4733,5.4765,5.4728,5.4732,5.4733,5.4737,5.4831,5.4853,5.4915,5.4798,5.4799,5.48,0,5.4898,5.4893,5.4924,5.4902,5.4903,5.4915,5.4909,5.4913,5.4899,5.4886,5.4881,5.4852,5.4865,5.4828,5.4845,5.4821,5.4821,5.4812,5.4814,5.4812,5.477,5.4832,5.4934,5.4943,5.4813,5.4812,5.4811,0,5.4972,5.4973,5.4992,5.4988,5.4963,5.4972,5.4963,5.4947,5.4947,5.4942,5.4941,5.4938,5.4936,5.4934,5.4905,5.488,5.4927,5.4886,5.4916,5.4917,5.4926,5.4926,5.503,5.4928,5.4928,5.4928,5.4928,0,5.5045,5.5065,5.5025,5.5036,5.5058,5.5024,5.5047,5.5033,5.502,5.5028,5.4992,5.5,5.4962,5.4967,5.4945,5.4963,5.4962,5.4952,5.4946,5.4955,5.4956,5.4953,5.4948,5.4931,5.493,5.493,5.4929,0,5.513,5.5104,5.5122,5.5098,5.5093,5.511,5.5089,5.5099,5.508,5.5091,5.5092,5.5063,5.5066,5.5038,5.5036,5.5021,5.505,5.5037,5.5055,5.5051,5.5082,5.5079,5.5187,5.52,5.5091,5.5092,5.5093,0,5.5178,5.5193,5.5171,5.5174,5.5167,5.5172,5.5172,5.514,5.5141,5.5129,5.5141,5.5142,5.514,5.5149,5.5127,5.5126,5.5112,5.515,5.5111,5.5121,5.5112,5.5112,5.5113,5.5158,5.5159,5.516,5.5161,0,5.5266,5.5253,5.5254,5.5252,5.5253,5.525,5.5243,5.5248,5.5214,5.5217,5.5221,5.5221,5.522,5.5222,5.5217,5.5207,5.5179,5.5174,5.5181,5.5189,5.5199,5.5194,5.5076,5.5171,5.517,5.5169,5.5169,5.5168,5.5333,5.5345,5.5332,5.5335,5.5328,5.5324,5.5332,5.5316,5.5319,5.5316,5.5297,5.5305,5.5293,5.5284,5.5277,5.5282,5.5264,5.5274,5.5276,5.5279,5.5285,5.52,5.5281,5.5281,5.5281,5.5281,5.528,0,5.5419,5.5409,5.5413,5.5406,5.5409,5.5384,5.5377,5.5381,5.5388,5.538,5.538,5.5386,5.5388,5.5368,5.5367,5.5376,5.5363,5.5377,5.5375,5.5374,5.5301,5.5295,5.5387,5.5387,5.5387,5.5387,5.5387,5.5387,5.5464,5.5482,5.5469,5.5484,5.5474,5.5481,5.548,5.5476,5.5469,5.5477,5.5479,5.5466,5.5454,5.5452,5.5454,5.5448,5.5449,5.5467,5.5457,5.5389,5.5379,5.5369,5.5363,5.5468,5.5468,5.5529,5.553,5.553]}]]